Location: Unspecified
(0.0000°N, 0.0000°E)
Time: 06:54:47
(UTC+00:00)

XW-2B - Visible Passes

Search period start: 26 October 2021 00:00
Search period end: 05 November 2021 00:00
Orbit: 503 x 524 km, 97.5° (Epoch: 25 October)

Date Brightness Start Highest point End Pass type
(mag) Time Alt. Az. Time Alt. Az. Time Alt. Az.
27 Oct ? 05:13:11 10° NE 05:16:31 31° ESE 05:19:53 10° SSE visible
28 Oct ? 04:58:32 10° ENE 05:01:09 18° ESE 05:03:47 10° SE visible
28 Oct ? 18:24:55 10° SW 18:27:20 16° WSW 18:29:43 10° WNW visible
29 Oct ? 04:45:06 10° E 04:45:46 10° ESE 04:46:28 10° ESE visible
29 Oct ? 18:08:42 10° SSW 18:11:56 28° WSW 18:15:10 10° NW visible
02 Nov ? 05:14:31 10° NE 05:17:55 33° ESE 05:21:21 10° SSE visible
03 Nov ? 04:59:48 10° NE 05:02:32 19° ESE 05:05:16 10° SSE visible
03 Nov ? 18:26:26 10° SW 18:28:41 15° WSW 18:30:57 10° WNW visible
04 Nov ? 04:46:02 10° E 04:47:09 11° ESE 04:48:15 10° ESE visible
04 Nov ? 18:10:08 10° SSW 18:13:18 26° WSW 18:16:26 10° NW visible
